Regional Weather Roundup
Issued by NWS Sioux Falls, SD

Home | Current Version | Previous Version | Text Only | Print | Product List | Glossary Off
Versions: 1 2 3 4 5 6 7 8 9 10 11 12 13 14 15 16 17 18 19 20 21 22 23 24 25 26 27 28 29 30 31 32 33 34 35 36 37 38 39 40 41 42 43 44 45 46 47 48 49 50

000
ASUS43 KFSD 172210
RWRFSD

WEATHER ROUNDUP FOR SE SOUTH DAKOTA/SW MINNESOTA/NW IOWA
NATIONAL WEATHER SERVICE SIOUX FALLS SD
500 PM CDT THU AUG 17 2017

NOTE: "FAIR" INDICATES FEW OR NO CLOUDS BELOW 12,000 FEET WITH NO
SIGNIFICANT WEATHER AND OR OBSTRUCTIONS TO VISIBILITY.


SDZ038>040-050-052>070-172300-
SOUTHEAST SOUTH DAKOTA

CITY           SKY/WX    TMP DP  RH WIND       PRES   REMARKS
BROOKINGS      SUNNY     76  59  55 NW10      29.90S
CHAMBERLAIN    SUNNY     86  62  43 SE9       29.86F
HURON          SUNNY     80  56  43 CALM      29.87F
MADISON        FAIR      75  59  57 NW12      29.91S
MITCHELL       SUNNY     82  58  43 CALM      29.89S
SIOUX FALLS    SUNNY     80  59  48 NW13      29.89S
WINNER         FAIR      89  61  38 S14       29.86F
YANKTON        SUNNY     81  58  45 SW8       29.91S
$$

MNZ071-072-080-081-089-090-097-098-172300-
SOUTHWEST MINNESOTA

CITY           SKY/WX    TMP DP  RH WIND       PRES   REMARKS
FAIRMONT       PTSUNNY   73  64  73 NW12      29.84R
JACKSON        SUNNY     73  63  68 NW18G24   29.86S
LUVERNE        SUNNY     77  59  53 NW12      29.89S
MARSHALL       SUNNY     76  58  53 NW16G22   29.85S
MONTEVIDEO     SUNNY     79  75  89 N13       29.85R
PIPESTONE      SUNNY     77  63  61 NW10G16   29.89S
REDWOOD FALLS  PTSUNNY   76  61  59 NW16G25   29.82S
TRACY          SUNNY     76  64  67 NW15      29.86S
WINDOM         SUNNY     75  63  64 NW17      29.85S
WORTHINGTON    SUNNY     77  59  53 NW16      29.88S
$$

IAZ001>003-012>014-020>022-031-032-NEZ013-014-SDZ071-172300-
NORTHWEST IOWA

CITY           SKY/WX    TMP DP  RH WIND       PRES   REMARKS
CHEROKEE       SUNNY     80  59  48 NW12      29.88S
DENISON        SUNNY     79  59  50 W14       29.91S
ESTHERVILLE    MOSUNNY   76  64  66 NW14G22   29.83F
LE MARS        SUNNY     79  59  50 NW10G16   29.89S
ORANGE CITY    SUNNY     79  63  57 NW14      29.89S
SHELDON        SUNNY     77  63  61 NW13      29.87S
SIOUX CITY     SUNNY     81  61  50 NW7       29.89S
SPENCER        MOSUNNY   80  62  54 NW17      29.86S
STORM LAKE     SUNNY     77  61  57 NW14G21   29.88S
$$

ABBREVIATIONS USED IN REMARKS
   TC - TEMPERATURE IN CELSIUS
  WCI - WIND CHILL INDEX
   HX - HEAT INDEX
  VSB - VISIBILITY





USA.gov is the U.S. government's official web portal to all federal, state and local government web resources and services.